Location: Chiroubles
(46.1812°N, 4.6660°E)
Time: 22:55:46
(UTC+00:00)

Explorer 7 - Pass Details

Date: 26 November 2020
Orbit: 484 x 678 km, 50.3° (Epoch: 24 January)

Event Time Altitude Azimuth Distance (km) Brightness Sun altitude
Exits shadow 04:28:52 45° 34° (NE) 763 7.6 -25.2°
Drops below altitude 10° 04:31:59 10° 66° (ENE) 1,793 10.2 -24.7°
Sets 04:34:10 0° 71° (ENE) 2,655 11.4 -24.3°
